Springfield, IL

7:50 PM CDT on March 30, 2017 (GMT -0500)
Capital

Weather History for KSPI - December, 2010

Change the Weather History Date:

Monday, December 13, 2010

  Actual Average Record
Temperature  
Mean Temperature 10 °F 31 °F  
Max Temperature 16 °F 39 °F 67 °F (1948)
Min Temperature 3 °F 23 °F -7 °F (1903)
Degree Days  
Heating Degree Days 55 34  
Month to date heating degree days 517 417  
Since 1 July heating degree days 1391 1485  
Cooling Degree Days 0 0  
Month to date cooling degree days 0 0  
Year to date cooling degree days 1554 1122  
Moisture  
Dew Point 0 °F    
Average Humidity 71    
Maximum Humidity 83    
Minimum Humidity 59    
Precipitation  
Precipitation 0.00 in 0.09 in 3.33 in (1881)
Month to date precipitation 0.56 1.20  
Year to date precipitation 45.81 36.11  
Snow  
Snow 0.00 in 0.10 in 5.40 in (2000)
Month to date snowfall 2.2 1.8  
Since 1 July snowfall 2.2 2.4  
Snow Depth 2.00 in    
Sea Level Pressure  
Sea Level Pressure 30.26 in    
Wind  
Wind Speed 11 mph (NW)    
Max Wind Speed 21 mph    
Max Gust Speed 29 mph    
Visibility 10 miles    
Events      
T = Trace of Precipitation, MM = Missing Value Source: NWS Daily Summary

Daily Weather History Graph

Daily Weather History Graph

Search for Another Location

Airport or City:

Trip Planner

Search our weather history database for the weather conditions in past years. The results will help you decide how hot, cold, wet, or windy it might be!

Date:

Astronomy

Dec. 13, 2010 Rise Set
Actual Time 7:11 AM CST 4:34 PM CST
Civil Twilight 6:41 AM CST 5:04 PM CST
Nautical Twilight 6:07 AM CST 5:38 PM CST
Astronomical Twilight 5:34 AM CST 6:11 PM CST
Moon 11:50 AM CST (12/13) No Moon Set
Length of Visible Light 10h 23m
Length of Day
9h 22m
First Quarter, 52% of the Moon is Illuminated
Dec 13
First Quarter
Dec 21
Full
Dec 27
Last Quarter
Jan 4
New
Jan 12
First Quarter

Hourly Weather History & Observations

Time (CST) Temp. Windchill Dew Point Humidity Pressure Visibility Wind Dir Wind Speed Gust Speed Precip Events Conditions
12:52 AM 9.0 °F -9.0 °F -0.0 °F 67% 30.13 in 10.0 mi NW 17.3 mph 26.5 mph N/A   Clear
1:52 AM 7.0 °F -9.1 °F -2.0 °F 67% 30.15 in 10.0 mi NW 12.7 mph 25.3 mph N/A   Clear
2:52 AM 7.0 °F -9.1 °F -2.9 °F 64% 30.16 in 10.0 mi NW 12.7 mph 24.2 mph N/A   Clear
3:52 AM 6.1 °F -12.2 °F -2.9 °F 67% 30.17 in 10.0 mi NW 16.1 mph - N/A   Clear
4:52 AM 5.0 °F -12.3 °F -4.0 °F 66% 30.19 in 10.0 mi NW 13.8 mph 21.9 mph N/A   Clear
5:52 AM 5.0 °F -10.0 °F -4.0 °F 66% 30.20 in 10.0 mi NW 10.4 mph - N/A   Clear
6:52 AM 3.9 °F -11.3 °F -4.0 °F 70% 30.22 in 10.0 mi NW 10.4 mph - N/A   Clear
7:52 AM 3.9 °F -11.3 °F -4.0 °F 70% 30.23 in 10.0 mi NW 10.4 mph - N/A   Clear
8:52 AM 6.1 °F -10.9 °F -2.9 °F 67% 30.25 in 10.0 mi NW 13.8 mph 23.0 mph N/A   Clear
9:52 AM 9.0 °F -6.6 °F -0.9 °F 64% 30.27 in 10.0 mi NW 12.7 mph - N/A   Clear
10:52 AM 10.9 °F -4.7 °F 1.0 °F 64% 30.27 in 10.0 mi NNW 13.8 mph - N/A   Clear
11:52 AM 12.9 °F 0.7 °F 1.9 °F 62% 30.26 in 10.0 mi NW 9.2 mph - N/A   Clear
12:52 PM 14.0 °F 0.5 °F 3.0 °F 62% 30.26 in 10.0 mi NW 11.5 mph - N/A   Clear
1:52 PM 15.1 °F 1.8 °F 3.9 °F 61% 30.27 in 10.0 mi NW 11.5 mph - N/A   Clear
2:52 PM 16.0 °F 2.3 °F 5.0 °F 62% 30.28 in 10.0 mi WNW 12.7 mph - N/A   Clear
3:52 PM 15.1 °F 2.5 °F 3.9 °F 61% 30.28 in 10.0 mi NW 10.4 mph - N/A   Clear
4:52 PM 12.9 °F 0.7 °F 3.9 °F 67% 30.29 in 10.0 mi WNW 9.2 mph - N/A   Clear
5:52 PM 10.9 °F -1.8 °F 3.0 °F 70% 30.31 in 10.0 mi NW 9.2 mph - N/A   Clear
6:52 PM 10.0 °F -2.9 °F 3.0 °F 73% 30.32 in 10.0 mi NW 9.2 mph - N/A   Clear
7:52 PM 9.0 °F -3.2 °F 1.9 °F 73% 30.32 in 10.0 mi NW 8.1 mph - N/A   Clear
8:52 PM 7.0 °F -3.3 °F 1.0 °F 77% 30.32 in 10.0 mi NW 5.8 mph - N/A   Clear
9:52 PM 6.1 °F -0.9 °F 1.0 °F 80% 30.33 in 10.0 mi NW 3.5 mph - N/A   Clear
10:52 PM 5.0 °F -4.1 °F -0.0 °F 80% 30.33 in 10.0 mi NNW 4.6 mph - N/A   Clear
11:52 PM 5.0 °F -2.1 °F 1.0 °F 84% 30.33 in 10.0 mi NNW 3.5 mph - N/A   Clear